Regional Weather Roundup
Issued by NWS

Home | Current Version | Previous Version | Text Only | Print | Product List | Glossary On
Versions: 1 2 3 4 5 6 7 8 9 10 11 12 13 14 15 16 17 18 19 20 21 22 23 24 25 26 27 28 29 30 31 32 33 34 35 36 37 38 39 40 41 42 43 44 45 46 47 48 49 50
000
ASUS43 KTOP 201959
RWRKS

WEATHER ROUNDUP FOR KANSAS
NATIONAL WEATHER SERVICE GOODLAND KS
300 PM CDT FRI APR 20 2018

NOTE:  "FAIR" INDICATES FEW OR NO CLOUDS BELOW 12,000 FEET WITH NO
SIGNIFICANT WEATHER AND/OR OBSTRUCTIONS TO VISIBILITY.

KSZ001>006-013>018-027>032-041>047-202100-
NORTHWEST KANSAS

CITY           SKY/WX    TMP DP  RH WIND       PRES   REMARKS
GOODLAND       CLOUDY    42  38  85 SE14      30.12R
HAYS           CLOUDY    59  32  36 SE21      30.16S
HILL CITY      CLOUDY    52  32  46 S12       30.23R
RUSSELL        CLOUDY    61  33  35 SE21G29   30.15F
$$

KSZ061>065-074>080-084>089-202100-
SOUTHWEST KANSAS

CITY           SKY/WX    TMP DP  RH WIND       PRES   REMARKS
DODGE CITY     CLOUDY    57  31  37 SE16G29   30.10S
GARDEN CITY    CLOUDY    50  39  66 E5        30.10R
LIBERAL        LGT RAIN  51  42  71 SE13      30.04S
$$

KSZ066>073-081>083-090>101-202100-
SOUTHEAST KANSAS

CITY           SKY/WX    TMP DP  RH WIND       PRES   REMARKS
CHANUTE        SUNNY     66  30  26 E16G23    30.27F
COFFEYVILLE    CLOUDY    65  31  28 E16       30.26F
HUTCHINSON     MOSUNNY   64  33  31 SE21G29   30.16F
MEDICINE LODGE   N/A     64  34  32 SE16G32   30.11F
NEWTON         CLOUDY    64  33  31 SE17G25   30.19F
PARSONS        SUNNY     65  30  27 VRB7G20   30.27F
WICHITA INTL   PTSUNNY   66  33  29 SE24G30   30.17F
WICHITA JABRA  MOSUNNY   65  31  28 SE16G31   30.18F
WICHITA MCCONL MOSUNNY   65  31  27 SE17G25   30.17F
WINFIELD       MOSUNNY   66  32  28 SE21G29   30.19F
$$

KSZ007>012-019>026-033>040-048>060-102>105-202100-
NORTHEAST KANSAS

CITY           SKY/WX    TMP DP  RH WIND       PRES   REMARKS
CONCORDIA      CLOUDY    62  30  29 SE20G28   30.21F
EMPORIA        MOSUNNY   63  30  28 SE18G28   30.24F
LAWRENCE       MOSUNNY   64  27  24 SE18G26   30.31F
MANHATTAN      PTSUNNY   65  30  27 SE12G26   30.23F
OLATHE IND     MOSUNNY   62  26  25 E13G25    30.31F
OLATHE EXE     CLOUDY    60  28  29 E10G23    30.31F
SALINA         MOSUNNY   66  33  29 SE23G29   30.20F
TOPEKA BILLARD SUNNY     64  30  27 SE16G25   30.29F
TOPEKA FORBES  SUNNY     64  28  25 SE15G29   30.27F
$$




USA.gov is the U.S. government's official web portal to all federal, state and local government web resources and services.